Victorville, CA

3:44 AM PDT on April 27, 2017 (GMT -0700)
Southern California Logistics

Weather History for KVCV - January, 2014

Change the Weather History Date:

Friday, January 31, 2014

  Actual Average (KSBD) Record (KSBD)
Temperature  
Mean Temperature 45 °F -  
Max Temperature 51 °F 65 °F 75 °F (2017)
Min Temperature 39 °F 40 °F 35 °F (2012)
Degree Days  
Heating Degree Days 20    
Moisture  
Dew Point 32 °F    
Average Humidity 60    
Maximum Humidity 82    
Minimum Humidity 43    
Precipitation  
Precipitation 0.00 in - - ()
Sea Level Pressure  
Sea Level Pressure 29.89 in    
Wind  
Wind Speed 12 mph (West)    
Max Wind Speed 23 mph    
Max Gust Speed 36 mph    
Visibility 10 miles    
Events      
Averages and records for this station are not official NWS values.
T = Trace of Precipitation, MM = Missing Value Source: NWS Daily Summary

Daily Weather History Graph

Daily Weather History Graph

Search for Another Location

Airport or City:

Trip Planner

Search our weather history database for the weather conditions in past years. The results will help you decide how hot, cold, wet, or windy it might be!

Date:

Astronomy

Jan. 31, 2014 Rise Set
Actual Time 6:48 AM PST 5:18 PM PST
Civil Twilight 6:21 AM PST 5:44 PM PST
Nautical Twilight 5:51 AM PST 6:14 PM PST
Astronomical Twilight 5:21 AM PST 6:44 PM PST
Moon 7:05 AM PST (1/31) 6:42 PM PST (1/31)
Length of Visible Light 11h 22m
Length of Day
10h 29m
New Moon, 1% of the Moon is Illuminated
Jan 31
New Moon
Feb 6
First Quarter
Feb 14
Full
Feb 22
Last Quarter
Mar 1
New

Hourly Weather History & Observations

Time (PST) Temp. Windchill Dew Point Humidity Pressure Visibility Wind Dir Wind Speed Gust Speed Precip Events Conditions
12:15 AM 48.2 °F - 42.8 °F 82% 29.83 in 10.0 mi SSW 5.8 mph - N/A   Unknown
12:35 AM 48.2 °F - 42.8 °F 82% 29.82 in 10.0 mi SSW 6.9 mph - N/A   Unknown
12:55 AM 48.2 °F - 41.0 °F 76% 29.82 in 10.0 mi SW 5.8 mph - N/A   Unknown
1:15 AM 48.2 °F - 41.0 °F 76% 29.82 in 10.0 mi WSW 6.9 mph - N/A   Unknown
1:35 AM 48.2 °F - 41.0 °F 76% 29.83 in 10.0 mi WSW 3.5 mph - N/A   Unknown
1:55 AM 48.2 °F - 39.2 °F 71% 29.82 in 10.0 mi SW 8.1 mph - N/A   Unknown
2:15 AM 46.4 °F 42.9 °F 39.2 °F 76% 29.81 in 10.0 mi SSW 6.9 mph - N/A   Unknown
2:35 AM 46.4 °F 43.5 °F 39.2 °F 76% 29.81 in 10.0 mi SSW 5.8 mph - N/A   Unknown
2:55 AM 44.6 °F 41.4 °F 39.2 °F 81% 29.82 in 10.0 mi WSW 5.8 mph - N/A   Unknown
3:15 AM 46.4 °F 41.9 °F 39.2 °F 76% 29.82 in 10.0 mi WSW 9.2 mph - N/A   Unknown
3:35 AM 46.4 °F 41.5 °F 39.2 °F 76% 29.82 in 10.0 mi WSW 10.4 mph - N/A   Unknown
3:55 AM 44.6 °F 39.2 °F 39.2 °F 81% 29.82 in 10.0 mi West 10.4 mph - N/A   Unknown
4:15 AM 46.4 °F 41.9 °F 37.4 °F 71% 29.82 in 10.0 mi WSW 9.2 mph - N/A   Unknown
4:35 AM 44.6 °F 39.7 °F 37.4 °F 76% 29.83 in 10.0 mi WSW 9.2 mph - N/A   Unknown
4:55 AM 44.6 °F 40.2 °F 37.4 °F 76% 29.83 in 10.0 mi SW 8.1 mph - N/A   Unknown
5:15 AM 44.6 °F 42.2 °F 37.4 °F 76% 29.83 in 10.0 mi SW 4.6 mph - N/A   Unknown
5:35 AM 42.8 °F 38.0 °F 37.4 °F 81% 29.83 in 10.0 mi WSW 8.1 mph - N/A   Unknown
5:55 AM 42.8 °F 38.6 °F 37.4 °F 81% 29.84 in 10.0 mi SW 6.9 mph - N/A   Unknown
6:15 AM 42.8 °F 37.5 °F 37.4 °F 81% 29.86 in 10.0 mi WSW 9.2 mph - N/A   Unknown
6:35 AM 42.8 °F 37.5 °F 37.4 °F 81% 29.86 in 10.0 mi WSW 9.2 mph - N/A   Unknown
6:55 AM 42.8 °F 38.0 °F 37.4 °F 81% 29.86 in 10.0 mi WSW 8.1 mph - N/A   Unknown
7:15 AM 42.8 °F 38.0 °F 37.4 °F 81% 29.88 in 10.0 mi West 8.1 mph - N/A   Unknown
7:35 AM 42.8 °F 35.4 °F 37.4 °F 81% 29.89 in 10.0 mi West 15.0 mph 20.7 mph N/A   Unknown
7:55 AM 44.6 °F 37.8 °F 35.6 °F 71% 29.91 in 10.0 mi WNW 15.0 mph 24.2 mph N/A   Unknown
8:15 AM 44.6 °F 37.8 °F 35.6 °F 71% 29.91 in 10.0 mi West 15.0 mph - N/A   Unknown
8:35 AM 44.6 °F 38.1 °F 33.8 °F 66% 29.93 in 10.0 mi West 13.8 mph 23.0 mph N/A   Unknown
8:55 AM 44.6 °F 36.9 °F 33.8 °F 66% 29.93 in 10.0 mi West 18.4 mph - N/A   Unknown
9:15 AM 46.4 °F 39.8 °F 33.8 °F 62% 29.95 in 10.0 mi West 16.1 mph - N/A   Unknown
9:35 AM 46.4 °F 39.0 °F 33.8 °F 62% 29.94 in 10.0 mi West 19.6 mph - N/A   Unknown
9:55 AM 48.2 °F - 33.8 °F 58% 29.95 in 10.0 mi West 18.4 mph 24.2 mph N/A   Unknown
10:15 AM 48.2 °F - 33.8 °F 58% 29.95 in 10.0 mi West 17.3 mph 25.3 mph N/A   Unknown
10:35 AM 48.2 °F - 32.0 °F 54% 29.94 in 10.0 mi West 17.3 mph 23.0 mph N/A   Unknown
10:55 AM 48.2 °F - 30.2 °F 50% 29.92 in 10.0 mi West 20.7 mph 28.8 mph N/A   Unknown
11:15 AM 50.0 °F - 30.2 °F 47% 29.92 in 10.0 mi West 16.1 mph - N/A   Unknown
11:35 AM 51.8 °F - 30.2 °F 44% 29.91 in 10.0 mi West 21.9 mph 29.9 mph N/A   Unknown
11:55 AM 51.8 °F - 32.0 °F 47% 29.91 in 10.0 mi West 20.7 mph 29.9 mph N/A   Unknown
12:15 PM 51.8 °F - 30.2 °F 44% 29.90 in 10.0 mi West 17.3 mph 27.6 mph N/A   Unknown
12:35 PM 51.8 °F - 30.2 °F 44% 29.90 in 10.0 mi WNW 18.4 mph 25.3 mph N/A   Unknown
12:55 PM 51.8 °F - 30.2 °F 44% 29.89 in 10.0 mi WNW 23.0 mph 29.9 mph N/A   Unknown
1:15 PM 51.8 °F - 30.2 °F 44% 29.89 in 10.0 mi West 18.4 mph 26.5 mph N/A   Unknown
1:35 PM 51.8 °F - 30.2 °F 44% 29.89 in 10.0 mi West 20.7 mph 29.9 mph N/A   Unknown
1:55 PM 50.0 °F - 28.4 °F 43% 29.89 in 10.0 mi West 20.7 mph 27.6 mph N/A   Unknown
2:15 PM 51.8 °F - 30.2 °F 44% 29.89 in 10.0 mi West 21.9 mph 27.6 mph N/A   Unknown
2:35 PM 48.2 °F - 30.2 °F 50% 29.90 in 10.0 mi West 19.6 mph 28.8 mph N/A   Unknown
2:55 PM 48.2 °F - 30.2 °F 50% 29.90 in 10.0 mi West 19.6 mph 26.5 mph N/A   Unknown
3:15 PM 48.2 °F - 28.4 °F 46% 29.89 in 7.0 mi WNW 23.0 mph 35.7 mph N/A   Unknown
3:35 PM 48.2 °F - 30.2 °F 50% 29.90 in 10.0 mi WNW 23.0 mph 29.9 mph N/A   Unknown
3:55 PM 48.2 °F - 30.2 °F 50% 29.90 in 10.0 mi West 20.7 mph 27.6 mph N/A   Unknown
4:15 PM 46.4 °F 40.1 °F 28.4 °F 50% 29.90 in 10.0 mi West 15.0 mph 26.5 mph N/A   Unknown
4:35 PM 46.4 °F 39.2 °F 28.4 °F 50% 29.90 in 10.0 mi West 18.4 mph 25.3 mph N/A   Unknown
4:55 PM 46.4 °F 39.2 °F 28.4 °F 50% 29.89 in 10.0 mi West 18.4 mph 26.5 mph N/A   Unknown
5:15 PM 46.4 °F 38.7 °F 28.4 °F 50% 29.88 in 10.0 mi WSW 20.7 mph 25.3 mph N/A   Unknown
5:35 PM 44.6 °F 37.8 °F 28.4 °F 53% 29.89 in 10.0 mi West 15.0 mph 20.7 mph N/A   Unknown
5:55 PM 44.6 °F 37.4 °F 28.4 °F 53% 29.90 in 10.0 mi West 16.1 mph 21.9 mph N/A   Unknown
6:15 PM 44.6 °F 36.9 °F 30.2 °F 57% 29.90 in 10.0 mi WSW 18.4 mph 23.0 mph N/A   Unknown
6:35 PM 44.6 °F 35.9 °F 28.4 °F 53% 29.90 in 10.0 mi West 23.0 mph 26.5 mph N/A   Unknown
6:55 PM 44.6 °F 36.6 °F 28.4 °F 53% 29.90 in 10.0 mi West 19.6 mph 26.5 mph N/A   Unknown
7:15 PM 44.6 °F 36.4 °F 28.4 °F 53% 29.90 in 10.0 mi West 20.7 mph 29.9 mph N/A   Unknown
7:35 PM 42.8 °F 34.0 °F 28.4 °F 57% 29.90 in 10.0 mi West 20.7 mph 26.5 mph N/A   Unknown
7:55 PM 42.8 °F 34.5 °F 28.4 °F 57% 29.91 in 10.0 mi West 18.4 mph 25.3 mph N/A   Unknown
8:15 PM 42.8 °F 37.0 °F 26.6 °F 53% 29.93 in 10.0 mi West 10.4 mph 17.3 mph N/A   Unknown
8:35 PM 42.8 °F 41.1 °F 26.6 °F 53% 29.93 in 10.0 mi West 3.5 mph - N/A   Unknown
8:55 PM 42.8 °F 40.1 °F 26.6 °F 53% 29.94 in 10.0 mi WNW 4.6 mph - N/A   Unknown
9:15 PM 42.8 °F 34.0 °F 26.6 °F 53% 29.94 in 10.0 mi West 20.7 mph - N/A   Unknown
9:35 PM 42.8 °F 34.8 °F 24.8 °F 49% 29.94 in 10.0 mi West 17.3 mph 25.3 mph N/A   Unknown
9:55 PM 41.0 °F 34.7 °F 24.8 °F 53% 29.95 in 10.0 mi West 10.4 mph - N/A   Unknown
10:15 PM 41.0 °F 33.5 °F 24.8 °F 53% 29.95 in 10.0 mi West 13.8 mph - N/A   Unknown
10:35 PM 41.0 °F 33.1 °F 23.0 °F 49% 29.96 in 10.0 mi West 15.0 mph 19.6 mph N/A   Unknown
10:55 PM 41.0 °F 32.8 °F 23.0 °F 49% 29.95 in 10.0 mi West 16.1 mph - N/A   Unknown
11:15 PM 41.0 °F 33.1 °F 23.0 °F 49% 29.95 in 10.0 mi West 15.0 mph - N/A   Unknown
11:35 PM 39.2 °F 30.5 °F 21.2 °F 49% 29.96 in 10.0 mi West 16.1 mph - N/A   Unknown
11:55 PM 39.2 °F 30.2 °F 21.2 °F 49% 29.96 in 10.0 mi West 17.3 mph - N/A   Unknown